EA5EN Weather Reports


time (UTC)temp
C
wind
direction
speed
KPH
gust
KPH
rain 1hr
cm
rain 24hr
cm
rain mn
cm
humidity
%
barometer
mb
20260507142055 17 19 4.8 6.4 0.00 0.13 0.13 85 1010.9
20260507141050 17 310 4.8 9.7 0.00 0.13 0.13 87 1010.8
20260507140040 -17 0.0 0.0 0.00 0.13 0.13 1010.9
20260507135031 17 180 4.8 6.4 0.00 0.13 0.13 88 1010.9
20260507134026 17 215 4.8 9.7 0.03 0.13 0.13 88 1011.0
20260507133016 17 229 6.4 11.3 0.05 0.13 0.13 88 1010.9
20260507132106 18 203 6.4 9.7 0.05 0.13 0.13 86 1010.9
20260507131056 18 248 3.2 6.4 0.05 0.13 0.13 88 1011.0
20260507130051 18 248 3.2 6.4 0.05 0.13 0.13 88 1011.1
20260507125040 17 225 0.0 3.2 0.05 0.13 0.13 88 1011.2
20260507124030 17 224 1.6 3.2 0.03 0.10 0.10 88 1011.3
20260507123019 17 303 4.8 11.3 0.00 0.05 0.05 90 1011.3
20260507122114 17 309 4.8 9.7 0.00 0.05 0.05 88 1011.6
20260507121125 18 253 4.8 12.9 0.00 0.05 0.05 87 1011.5
20260507120115 18 102 4.8 11.3 0.00 0.05 0.05 79 1011.5
20260507115050 18 113 6.4 11.3 0.03 0.05 0.05 77 1011.6
20260507114041 19 87 6.4 11.3 0.03 0.05 0.05 74 1011.5
20260507113031 18 73 6.4 14.5 0.05 0.05 0.05 76 1011.7
20260507112026 18 82 6.4 17.7 0.05 0.05 0.05 76 1011.8
20260507111037 18 69 4.8 11.3 0.05 0.05 0.05 78 1011.8
20260507110107 18 73 4.8 9.7 0.05 0.05 0.05 80 1012.0
20260507105136 18 90 3.2 3.2 0.03 0.03 0.03 80 1012.0
20260507104050 18 80 4.8 6.4 0.03 0.03 0.03 78 1012.0
20260507103041 18 75 8.0 14.5 0.00 0.00 0.00 74 1011.9
20260507102031 18 74 8.0 17.7 0.00 0.00 0.00 72 1011.8
20260507101046 18 64 8.0 17.7 0.00 0.00 0.00 71 1011.7
20260507100016 19 68 12.9 24.1 0.00 0.00 0.00 70 1011.6
20260507095126 19 50 9.7 17.7 0.00 0.00 0.00 71 1011.6
20260507094055 19 64 9.7 14.5 0.00 0.00 0.00 72 1011.8
20260507093050 18 71 3.2 9.7 0.00 0.00 0.00 77 1011.8
20260507092040 18 103 3.2 6.4 0.00 0.00 0.00 80 1012.0
20260507091051 18 86 3.2 6.4 0.00 0.00 0.00 81 1012.0
20260507090026 18 90 3.2 6.4 0.00 0.00 0.00 81 1012.0
20260507085017 17 82 1.6 6.4 0.00 0.00 0.00 82 1011.9
20260507084106 18 0.0 3.2 0.00 0.00 0.00 83 1012.0
20260507083056 18 0.0 3.2 0.00 0.00 0.00 83 1012.0
20260507082111 17 90 1.6 3.2 0.00 0.00 0.00 82 1012.2
20260507081101 17 113 1.6 3.2 0.00 0.00 0.00 80 1012.1
20260507080032 17 52 1.6 6.4 0.00 0.00 0.00 79 1012.1
20260507075027 17 62 1.6 6.4 0.00 0.00 0.00 75 1012.0
20260507074016 17 49 1.6 3.2 0.00 0.00 0.00 75 1012.0
20260507073105 17 57 3.2 6.4 0.00 0.00 0.00 74 1012.0
20260507072055 18 23 3.2 6.4 0.00 0.00 0.00 74 1011.9
20260507071050 17 13 3.2 9.7 0.00 0.00 0.00 75 1011.6
20260507070041 17 21 3.2 6.4 0.00 0.00 0.00 76 1011.6
20260507065031 17 38 3.2 6.4 0.00 0.00 0.00 75 1011.6
20260507064026 17 34 4.8 6.4 0.00 0.00 0.00 74 1011.6
20260507063017 17 17 3.2 6.4 0.00 0.00 0.00 74 1011.4
20260507062127 17 0.0 3.2 0.00 0.00 0.00 76 1011.5
20260507061056 16 36 3.2 6.4 0.00 0.00 0.00 76 1011.3
20260507060050 16 41 3.2 6.4 0.00 0.00 0.00 77 1011.3
20260507055041 16 23 3.2 9.7 0.00 0.00 0.00 77 1011.3
20260507054031 16 23 3.2 6.4 0.00 0.00 0.00 78 1011.3
20260507053026 16 23 1.6 3.2 0.00 0.00 0.00 79 1011.4
20260507052016 15 23 1.6 3.2 0.00 0.00 0.00 80 1011.4
20260507051126 15 0 0.0 3.2 0.00 0.00 0.00 81 1011.1
20260507050056 15 0 0.0 3.2 0.00 0.00 0.00 81 1011.1
20260507045050 15 0 1.6 3.2 0.00 0.00 0.00 82 1011.0
20260507044040 15 0.0 0.0 0.00 0.00 0.00 83 1011.2
20260507043031 15 315 0.0 3.2 0.00 0.00 0.00 83 1011.1
20260507042026 15 338 1.6 6.4 0.00 0.00 0.00 84 1011.2
20260507041017 15 338 1.6 3.2 0.00 0.00 0.00 84 1011.1
20260507040127 15 338 1.6 3.2 0.00 0.00 0.00 85 1011.1
20260507035056 15 338 0.0 3.2 0.00 0.00 0.00 85 1011.0
20260507034131 15 338 1.6 3.2 0.00 0.00 0.00 85 1011.1
20260507033040 15 343 1.6 3.2 0.00 0.00 0.00 86 1010.9
20260507032049 15 0.0 3.2 0.00 0.00 0.00 86 1011.1
20260507031019 15 23 0.0 3.2 0.00 0.00 0.00 86 1011.0
20260507030114 15 23 0.0 3.2 0.00 0.00 0.00 85 1011.0
20260507025105 15 23 0.0 3.2 0.00 0.00 0.00 85 1011.0
20260507024055 16 23 0.0 3.2 0.00 0.00 0.00 85 1011.1
20260507023110 16 23 1.6 3.2 0.00 0.00 0.00 85 1011.1
20260507022041 16 23 0.0 3.2 0.00 0.00 0.00 85 1011.0
20260507021031 16 23 1.6 3.2 0.00 0.00 0.00 86 1011.2
20260507020026 16 23 1.6 6.4 0.00 0.00 0.00 86 1011.2
20260507015016 16 23 1.6 3.2 0.00 0.00 0.00 85 1011.3
20260507014107 16 23 1.6 6.4 0.00 0.00 0.00 85 1011.4
20260507013056 16 45 1.6 6.4 0.00 0.00 0.00 85 1011.5
20260507012131 16 26 3.2 6.4 0.00 0.00 0.00 84 1011.4
20260507011101 16 23 3.2 9.7 0.00 0.00 0.00 84 1011.4
20260507010031 16 23 3.2 6.4 0.00 0.00 0.00 84 1011.4
20260507005026 16 29 1.6 6.4 0.00 0.00 0.00 84 1011.4
20260507004017 16 15 1.6 6.4 0.00 0.00 0.00 84 1011.5
20260507003106 16 27 1.6 6.4 0.00 0.00 0.00 84 1011.5
20260507002115 16 34 3.2 6.4 0.00 0.00 0.00 83 1011.7
20260507001050 17 31 3.2 6.4 0.00 0.00 0.00 82 1011.7
20260507000040 17 18 3.2 6.4 0.00 0.00 0.00 83 1011.9
20260506235031 17 354 3.2 6.4 0.00 0.00 0.00 83 1011.8
20260506234046 17 23 3.2 6.4 0.00 0.00 0.00 83 1012.0
20260506233017 17 34 1.6 6.4 0.00 0.00 0.00 83 1012.0
20260506232107 17 15 3.2 6.4 0.00 0.00 0.00 83 1012.1
20260506231056 17 3 4.8 9.7 0.00 0.00 0.00 83 1012.1
20260506230051 17 23 1.6 6.4 0.00 0.00 0.00 83 1012.1
20260506225040 17 17 3.2 6.4 0.00 0.00 0.00 83 1012.0
20260506224029 17 19 1.6 6.4 0.00 0.00 0.00 84 1012.0
20260506223019 17 32 3.2 6.4 0.00 0.00 0.00 85 1012.0
20260506222114 17 45 1.6 6.4 0.00 0.00 0.00 85 1012.2
20260506221103 17 45 3.2 6.4 0.00 0.00 0.00 85 1012.1
20260506220053 17 28 1.6 6.4 0.00 0.00 0.00 85 1012.1
20260506215041 17 72 6.4 11.3 0.00 0.00 0.00 84 1012.2
20260506214032 17 66 4.8 11.3 0.00 0.00 0.00 84 1012.4
20260506213027 17 52 6.4 11.3 0.00 0.00 0.00 84 1012.4
20260506212016 17 57 6.4 12.9 0.00 0.00 0.00 84 1012.3
20260506211126 17 62 6.4 14.5 0.00 0.00 0.00 83 1012.3
20260506210056 17 75 8.0 11.3 0.00 0.00 0.00 83 1012.3
20260506205111 17 65 4.8 11.3 0.00 0.00 0.00 82 1012.2
20260506204041 17 72 4.8 9.7 0.00 0.00 0.00 82 1012.3
20260506203031 17 45 4.8 9.7 0.00 0.00 0.00 81 1012.1
20260506202046 17 58 4.8 9.7 0.00 0.00 0.00 80 1012.0
20260506201017 17 70 4.8 9.7 0.00 0.00 0.00 80 1011.9
20260506200106 -17 0.0 0.0 0.00 0.00 0.00 1011.5
20260506175056 -17 0.0 0.0 0.00 0.00 0.00 1010.7
20260506174047 -17 0.0 0.0 0.00 0.00 0.00 1010.6
20260506173056 -17 0.0 0.0 0.00 0.00 0.00 1010.5
20260506172031 -17 0.0 0.0 0.00 0.00 0.00 1010.5
20260506171020 -17 0.0 0.0 0.00 0.00 0.00 1010.4
20260506164554 20 71 14.5 25.7 0.00 0.00 0.00 66 1010.4
20260506155028 20 103 16.1 27.4 0.00 0.00 0.00 67 1010.1
20260506154039 20 84 14.5 27.4 0.00 0.00 0.00 67 1010.2
20260506153108 21 75 16.1 27.4 0.00 0.00 0.00 64 1010.0
20260506152056 21 56 17.7 29.0 0.00 0.00 0.00 64 1010.0
20260506151045 21 95 17.7 29.0 0.00 0.00 0.00 65 1010.1
20260506150040 21 38 17.7 32.2 0.00 0.00 0.00 65 1010.1
20260506145031 21 81 14.5 35.4 0.00 0.00 0.00 64 1010.1
20260506144041 21 78 16.1 29.0 0.00 0.00 0.00 64 1010.0
20260506143016 21 69 19.3 40.2 0.00 0.00 0.00 62 1010.0